ECMWFFLT1_sfc_temp_057.txt.gz
Temp
65 64 65 64 65 66 65 66 66 65 66 66 65 64 63 64 64 63 62 63 65 66 65 64 64 63 65 65 63 63 63 63 61 60 59 59 57 59 61 61 61 62 61 61 61 57 56 54 55 60 60 61 60 62 63 62 62 62 62 62 62 62 62
66 65 66 66 66 66 64 63 65 65 65 65 66 65 65 65 64 64 63 64 64 64 66 66 64 65 62 61 61 62 62 62 62 61 60 59 59 59 59 59 61 60 60 60 60 60 55 55 54 55 56 59 59 61 62 62 62 62 63 63 63 63 62
66 66 66 65 64 63 63 63 63 63 63 62 63 63 62 64 64 65 64 63 62 65 64 64 63 62 61 61 61 60 61 61 61 61 60 60 60 61 60 61 60 58 59 59 58 59 58 57 55 54 55 56 56 59 60 60 61 62 62 62 62 62 60
65 65 64 63 62 63 63 63 62 62 62 62 62 64 63 63 62 63 62 64 64 64 64 63 62 62 61 62 63 63 62 61 60 61 61 60 59 59 61 59 60 60 57 56 58 58 57 55 54 54 56 57 58 57 59 61 61 63 63 62 62 62 61
66 65 64 62 63 62 62 61 61 61 62 62 62 61 63 63 63 61 62 63 63 62 62 63 64 64 64 63 61 62 62 61 61 61 60 60 60 60 60 59 59 60 60 60 60 60 59 58 58 56 55 58 59 59 63 60 63 63 63 64 64 62 62
66 66 64 63 63 62 61 61 61 61 60 61 60 62 59 61 62 62 63 62 62 63 62 62 62 63 62 61 62 61 60 60 59 60 59 58 58 58 58 59 61 61 60 60 62 62 61 60 59 55 57 58 55 58 61 62 60 64 64 64 64 64 63
66 66 64 64 63 62 63 62 62 61 61 61 60 60 61 62 61 61 61 61 60 61 62 62 62 63 63 62 61 60 59 59 59 59 59 59 59 58 60 60 60 60 59 61 61 62 61 60 58 58 57 58 59 60 62 62 64 61 62 63 64 64 63
66 66 65 65 63 63 63 63 62 61 61 61 61 62 62 62 62 62 62 62 62 61 62 62 63 62 61 62 60 59 59 59 59 59 58 59 61 60 58 58 60 60 59 60 61 60 62 61 60 59 56 56 55 57 58 61 60 61 61 61 64 63 62
66 66 65 64 63 64 63 63 62 62 61 61 62 62 62 62 61 61 62 60 59 61 62 62 62 61 60 59 59 60 59 62 59 58 58 60 60 59 58 58 61 60 61 61 63 60 60 61 61 58 59 57 55 54 55 56 57 57 63 60 61 63 62
65 65 65 64 64 64 63 63 63 62 62 62 63 62 62 62 61 60 60 61 62 62 62 62 62 62 61 61 61 58 60 59 59 58 58 60 57 58 58 58 58 59 59 60 61 61 61 60 61 60 60 60 58 56 51 51 53 53 60 62 58 62 62
65 65 64 64 65 64 62 63 62 62 63 63 64 64 62 61 62 64 61 62 62 61 61 62 62 61 60 59 60 60 59 58 58 58 59 59 59 58 58 59 57 58 58 59 61 60 62 60 59 61 59 60 60 57 50 50 53 54 55 60 58 58 60
64 64 64 64 64 64 63 63 63 63 63 62 63 62 61 61 62 61 60 59 60 61 61 61 62 62 61 59 60 59 59 59 58 58 59 61 60 60 58 58 58 58 57 59 59 60 60 60 59 60 59 60 59 59 58 53 51 56 54 55 59 63 61
65 65 65 65 64 63 64 64 63 63 63 63 62 62 61 62 61 60 60 61 62 61 61 62 62 61 60 61 61 62 59 58 58 58 60 60 64 60 58 59 58 58 57 59 60 59 60 61 59 59 61 60 59 58 57 54 53 54 56 54 57 61 62
64 65 65 64 64 64 64 65 65 65 64 63 62 61 62 62 61 61 60 60 60 60 60 61 61 60 60 60 60 59 59 60 61 59 59 59 61 59 58 59 58 58 58 59 58 60 60 61 60 60 60 60 59 59 60 56 55 53 58 55 55 60 59
66 66 64 63 65 65 65 64 64 65 64 62 63 62 63 62 61 62 62 61 60 60 61 61 60 62 62 59 59 62 61 60 59 58 59 60 59 62 59 58 60 58 59 59 57 63 62 62 62 62 62 61 59 59 57 55 53 50 53 57 59 60 59
63 64 65 63 64 65 65 65 65 64 63 62 62 63 64 63 63 63 63 62 62 61 61 62 60 62 61 61 60 61 61 59 59 59 59 59 62 60 59 58 59 59 61 58 57 58 59 61 61 61 59 60 60 57 58 56 54 54 53 55 54 59 59
59 59 61 63 63 64 65 65 64 63 62 62 63 61 63 64 63 62 62 62 62 61 61 60 61 62 62 61 61 60 60 59 58 58 58 58 59 59 57 57 59 59 58 58 58 58 58 60 59 59 60 58 58 58 58 58 54 52 52 56 56 59 58
60 61 60 60 63 63 63 63 62 62 60 61 62 61 62 63 62 62 61 61 60 60 60 61 61 61 61 60 59 59 58 58 58 57 58 58 59 57 58 58 58 58 57 58 56 57 59 58 59 59 59 59 58 58 59 59 59 57 54 53 55 57 56
60 61 60 59 59 61 63 62 62 63 62 63 62 62 62 62 63 61 59 58 58 59 60 60 61 60 59 59 58 58 58 57 58 58 58 58 56 57 56 57 58 58 58 58 57 57 57 57 59 58 58 59 58 58 58 57 57 57 56 54 53 56 55
58 59 58 57 58 58 61 62 63 63 62 64 63 61 61 60 59 59 58 60 59 59 59 59 60 60 60 59 58 57 57 56 57 56 57 57 57 58 58 57 57 57 58 58 59 59 57 56 57 55 55 56 57 56 56 55 56 55 54 53 52 53 53
58 58 58 58 59 59 59 61 60 60 60 60 60 60 59 59 58 59 59 58 59 59 58 58 58 59 59 58 57 57 56 56 56 56 55 56 56 57 57 58 58 57 57 56 57 57 58 58 57 56 54 55 55 55 54 53 53 53 51 51 52 52 51
58 58 58 58 58 59 59 58 58 59 59 59 60 60 60 59 58 58 57 58 57 57 58 57 55 55 58 57 57 57 57 56 56 55 54 55 56 56 57 57 57 56 59 58 55 55 55 57 58 55 53 53 54 54 52 52 52 50 50 50 51 50 51
59 58 58 58 57 58 57 58 57 57 58 58 58 59 59 59 58 58 57 56 56 57 56 53 50 48 52 58 57 57 55 55 56 55 55 55 55 56 56 55 57 61 57 55 52 47 46 49 53 55 53 52 52 53 51 50 50 50 51 49 48 49 49
58 58 58 57 59 59 59 58 57 57 57 58 58 59 59 58 58 57 57 56 56 56 54 50 43 41 42 48 58 56 56 55 55 55 55 55 55 56 55 57 55 57 56 53 48 44 44 44 44 44 46 49 52 52 49 49 48 48 47 49 48 48 46
57 57 58 58 58 58 57 57 57 57 57 58 58 59 59 58 58 57 56 56 55 55 52 45 40 41 42 44 51 57 57 57 57 56 55 55 56 56 57 58 56 57 56 54 51 48 45 43 43 43 43 43 43 44 46 50 48 46 45 46 47 47 46
57 57 58 58 57 57 57 57 57 57 57 57 58 58 58 58 57 56 57 56 55 54 50 40 40 41 41 41 41 49 57 57 58 57 56 56 56 56 57 58 58 58 59 59 55 51 49 46 44 43 43 44 43 44 42 43 46 50 48 46 46 46 47
57 57 57 58 58 57 57 56 56 55 55 55 56 56 56 56 55 55 55 55 55 53 49 41 39 40 40 39 38 42 55 56 57 57 56 57 57 56 57 57 56 53 51 52 52 53 51 50 49 49 49 48 47 46 43 43 43 45 48 49 48 46 47
57 58 57 57 56 56 55 55 56 56 56 55 55 55 55 54 54 54 54 54 53 52 49 38 39 39 39 39 38 39 52 57 57 55 55 54 54 53 55 57 54 51 49 48 46 48 51 51 50 51 49 48 46 45 44 45 45 46 47 48 47 47 46
57 57 56 56 56 55 55 55 54 55 54 54 53 53 53 54 54 54 54 52 52 51 44 37 39 39 38 39 39 47 52 55 55 53 53 52 51 51 54 54 51 49 48 47 44 43 46 50 50 51 48 46 45 43 42 42 41 44 45 45 45 45 45
56 56 56 57 56 56 55 55 55 56 55 55 54 54 55 55 55 55 53 52 52 50 46 39 38 38 38 37 43 51 52 55 54 52 51 50 51 52 53 52 51 49 48 46 42 42 44 48 50 50 48 46 45 43 43 44 41 41 41 42 42 42 41
55 56 55 54 54 55 55 55 56 56 56 55 55 55 55 54 54 54 53 52 53 51 47 40 38 38 38 37 43 50 51 53 52 51 49 48 49 50 52 52 52 49 47 44 42 43 44 49 49 47 48 47 45 43 44 45 46 43 41 40 40 40 40
55 53 53 56 55 54 54 56 55 55 55 55 55 54 55 55 54 53 54 53 54 52 48 42 37 37 37 36 40 50 50 53 52 50 49 47 46 46 46 48 50 48 47 44 42 43 45 48 48 47 48 47 45 43 43 44 44 44 45 45 44 44 43
55 55 55 54 54 55 54 53 54 54 53 55 55 54 54 55 54 54 53 52 54 52 49 45 39 37 37 36 38 44 50 51 51 49 49 49 47 43 43 42 43 40 40 41 41 42 43 44 48 46 47 46 44 44 43 44 44 42 44 45 43 42 43
56 57 57 56 56 55 54 54 52 53 53 53 54 53 53 52 54 54 53 53 53 51 52 49 41 36 36 37 36 41 50 49 51 51 50 48 48 45 43 42 41 40 40 41 41 41 42 42 43 44 43 43 43 43 41 42 42 44 43 43 42 41 42
57 58 59 58 57 55 54 54 54 55 54 52 51 50 51 52 51 52 53 53 53 53 53 53 45 35 36 37 39 40 50 49 49 53 49 48 46 45 44 42 42 40 40 40 40 41 41 41 41 43 41 39 37 39 40 41 40 40 41 41 41 39 39
56 57 56 55 56 56 55 54 52 53 53 54 54 52 51 50 50 51 51 51 51 52 52 52 48 42 36 39 37 36 39 42 44 52 52 49 48 46 44 42 42 41 39 40 40 39 40 40 41 40 38 37 37 39 40 38 39 39 38 39 40 40 40
54 54 54 54 54 54 54 54 54 54 52 53 52 54 50 50 50 50 50 49 50 50 50 52 46 45 40 38 37 38 40 39 43 49 53 51 49 46 45 43 42 39 40 40 40 40 40 41 40 37 37 37 38 40 38 37 38 40 38 36 37 37 41

ECMWFFLT1_sfc_temp_060.txt.gz
Temp
62 61 62 61 61 63 63 62 63 62 62 62 62 61 61 61 60 60 61 61 62 63 63 61 60 60 62 61 61 60 60 60 60 59 57 58 57 58 58 58 58 60 58 56 58 57 57 55 56 59 58 57 59 61 61 61 60 60 60 61 63 63 62
63 63 62 62 62 62 61 61 62 61 61 61 62 62 61 61 61 60 61 62 62 62 63 62 60 60 59 59 60 59 59 58 58 58 59 57 57 58 57 57 58 57 57 58 58 57 54 54 54 55 56 59 59 59 60 60 59 61 61 62 63 60 58
63 62 62 62 61 61 61 60 59 60 59 59 59 60 60 60 60 62 62 62 60 61 61 59 59 59 59 59 58 58 58 58 57 58 57 56 56 57 57 58 56 56 57 57 55 55 56 54 54 54 54 55 56 57 59 59 60 60 61 60 59 58 56
62 62 62 60 60 60 60 59 59 59 59 59 59 59 59 60 61 62 61 59 60 61 60 60 59 59 59 59 59 59 59 58 57 57 58 56 57 56 57 57 58 59 57 54 55 55 54 53 53 52 52 54 56 56 56 58 59 60 60 58 58 57 57
63 63 62 61 62 61 60 59 57 58 58 58 58 58 58 59 61 59 59 59 60 60 60 60 59 59 59 59 58 58 58 57 57 58 57 57 57 56 55 55 55 56 55 58 58 57 57 56 57 54 54 55 56 56 59 58 60 60 59 59 58 57 56
64 64 63 62 61 61 59 58 58 58 57 58 57 59 57 58 60 60 60 60 59 59 59 59 58 58 58 58 58 57 57 57 56 57 57 55 57 57 55 55 56 57 57 58 59 58 57 57 57 55 55 54 53 55 57 58 56 59 59 59 59 58 58
64 63 63 63 62 61 60 59 59 58 58 58 57 58 58 58 58 59 59 59 58 58 59 59 58 58 57 58 58 57 56 55 56 57 56 55 55 54 56 58 57 57 56 59 58 59 58 57 55 56 55 54 55 56 56 56 58 56 58 58 59 58 57
63 62 62 62 62 62 60 60 59 57 58 57 58 57 57 57 57 58 59 59 59 59 58 58 59 56 56 57 56 56 55 56 57 57 56 58 59 58 56 56 58 57 56 57 58 59 59 58 58 56 56 54 51 53 54 55 55 54 55 56 58 57 56
63 62 61 61 62 62 61 61 59 58 58 57 57 56 57 57 57 58 59 58 58 58 57 57 56 56 55 55 55 56 57 59 58 56 55 56 55 54 55 55 59 56 57 58 59 57 57 58 57 55 55 56 54 50 51 52 52 53 58 54 57 57 56
62 62 61 61 62 62 62 62 61 59 59 59 59 58 58 57 56 56 57 57 57 57 56 56 56 55 55 56 55 55 56 55 57 55 54 55 52 53 55 55 55 55 55 56 58 59 59 59 59 58 59 57 56 54 49 47 49 49 57 55 53 56 56
63 62 61 61 62 61 61 61 61 60 61 60 60 60 58 56 57 59 57 56 56 57 57 56 56 55 55 56 55 55 55 55 56 55 55 54 54 55 55 56 56 56 53 56 57 56 56 58 58 59 61 58 57 57 52 49 49 48 52 55 51 53 55
63 62 61 63 63 62 62 62 62 62 61 61 62 60 60 59 58 57 57 56 57 57 56 56 56 56 56 55 56 56 55 56 56 55 54 56 55 56 55 55 54 55 54 56 56 55 55 55 55 55 57 58 58 57 55 52 49 52 51 53 56 57 57
63 64 63 63 63 63 63 63 62 62 62 62 62 62 61 60 59 56 57 57 57 57 57 57 56 55 55 55 56 58 55 55 56 54 54 55 58 55 55 55 53 55 55 56 56 55 55 54 54 54 57 57 56 56 55 53 52 53 50 48 51 55 57
63 64 64 64 63 63 63 63 64 64 63 62 62 61 61 61 59 57 57 57 57 57 57 56 56 56 56 55 55 55 55 55 55 54 55 56 56 54 54 55 55 55 54 56 54 55 56 54 54 56 56 56 55 55 56 52 53 51 55 52 52 55 55
64 64 63 61 62 63 63 63 63 63 63 62 62 62 62 61 59 59 57 57 57 57 57 56 56 57 57 56 55 57 56 55 55 54 55 56 55 56 53 55 56 55 55 55 55 58 55 56 57 57 56 58 56 57 54 52 50 48 51 54 54 54 54
62 63 62 61 62 63 63 63 64 64 63 62 62 63 62 62 61 59 59 58 57 57 58 57 56 57 57 57 56 55 55 55 56 55 56 55 55 55 55 54 54 54 57 56 54 54 55 56 56 57 55 56 57 54 54 54 51 50 52 53 53 55 55
60 60 60 61 62 62 63 62 64 64 64 62 62 62 62 62 62 61 61 59 58 57 57 58 57 57 58 58 57 57 55 55 55 55 56 55 55 55 54 54 54 53 55 55 53 54 54 55 55 55 55 53 53 53 53 51 49 47 49 54 53 54 55
59 60 60 60 61 62 62 63 63 64 63 63 62 62 62 62 61 61 60 58 57 57 59 59 59 58 57 57 58 57 57 56 55 55 56 56 58 56 55 55 55 55 55 55 53 54 54 55 55 56 55 54 54 54 54 53 52 51 51 52 52 54 52
60 60 59 59 60 62 62 62 62 63 64 64 62 62 62 61 61 60 59 58 58 58 58 59 58 58 57 57 57 56 56 56 55 55 54 55 56 55 55 55 55 55 55 56 54 54 53 53 55 54 54 55 54 54 54 53 53 53 53 48 49 55 52
58 58 58 58 58 60 62 61 61 61 62 63 62 61 60 60 60 60 59 59 59 58 58 58 57 57 56 56 56 56 55 55 55 55 55 55 55 55 56 56 55 54 55 55 55 55 53 53 55 52 53 53 53 54 53 53 53 53 52 50 49 50 51
57 57 56 56 57 59 59 60 60 61 59 60 60 60 60 60 59 59 59 59 59 58 58 57 57 57 56 56 56 55 55 55 54 54 53 53 54 55 55 55 55 55 55 54 55 54 55 55 53 53 52 53 53 54 52 51 51 50 50 49 47 49 45
56 57 57 57 56 57 58 58 57 57 56 56 58 58 59 59 58 57 57 58 58 57 58 57 57 56 56 56 54 55 55 55 55 54 52 53 53 54 54 55 55 54 56 58 55 56 57 57 55 54 52 51 52 52 51 50 50 48 47 48 47 46 44
56 56 56 57 56 56 57 56 57 56 56 57 57 57 57 58 58 57 57 55 55 56 55 54 54 53 54 57 55 55 54 54 55 54 53 52 52 54 54 54 56 60 56 55 52 47 48 51 54 55 53 52 52 51 50 49 48 48 48 47 45 44 45
55 55 55 54 55 55 56 56 55 56 56 57 57 57 57 57 56 56 57 56 55 55 54 54 47 45 47 50 56 55 55 55 54 54 54 54 54 55 54 55 55 56 55 53 48 44 44 44 44 45 47 49 52 53 50 48 46 45 45 46 44 44 43
55 55 55 55 54 55 54 55 55 55 55 56 56 56 56 57 56 56 56 56 55 54 53 49 41 42 43 44 49 55 55 55 55 54 54 54 55 55 55 55 54 55 53 51 50 49 46 43 43 43 43 43 43 44 46 48 47 45 44 45 45 44 43
55 54 54 54 53 54 54 55 55 55 55 55 56 56 56 55 55 54 55 55 54 53 52 43 40 42 42 42 43 50 54 54 55 54 54 54 55 55 55 54 54 55 55 56 53 49 49 47 44 43 44 44 44 43 42 44 45 49 46 46 45 43 42
55 54 54 53 53 53 53 52 52 52 53 54 55 54 53 54 54 54 54 54 54 53 51 42 40 41 41 41 41 44 53 53 52 53 54 54 55 54 55 54 52 51 51 52 50 49 49 48 47 47 47 46 46 45 43 42 42 43 46 47 46 46 45
54 54 54 54 53 54 53 51 52 51 53 53 54 53 53 53 53 53 53 53 52 51 51 40 39 40 40 40 39 39 49 53 52 51 51 53 55 55 54 53 51 50 49 49 50 49 49 48 48 47 46 45 43 43 42 43 43 44 45 45 45 46 44
52 52 53 53 53 52 50 52 52 50 50 50 50 51 51 51 51 52 52 51 50 50 44 37 39 39 39 39 38 43 50 52 51 49 49 49 51 53 53 52 50 49 48 47 47 46 48 50 49 47 45 43 42 41 42 42 40 44 45 46 46 46 45
53 53 53 52 51 51 51 51 51 52 53 52 52 52 52 52 52 52 50 50 50 48 45 38 38 38 38 37 39 48 51 51 50 49 48 49 50 51 51 51 50 49 47 46 44 43 44 48 49 46 44 42 42 42 43 43 42 41 42 43 43 43 42
51 51 50 52 52 50 49 50 51 51 52 51 51 52 52 51 50 52 50 49 49 48 46 40 38 38 37 36 43 51 50 50 48 48 47 47 48 49 51 52 52 49 48 46 42 42 44 49 48 46 45 44 43 42 43 43 43 42 41 40 41 40 40
52 51 51 51 50 50 50 50 50 51 51 50 51 50 51 52 49 49 49 49 52 50 45 40 37 37 37 35 42 49 50 49 47 46 47 45 44 47 47 49 50 49 48 45 40 42 43 47 48 47 45 45 43 42 42 39 41 41 41 42 42 40 40
50 50 50 50 51 51 51 50 50 50 50 49 50 50 49 49 49 49 47 47 50 49 47 43 38 36 36 36 39 47 50 49 47 45 46 47 45 42 42 42 43 42 41 41 41 41 42 44 47 46 45 44 43 43 41 40 40 39 41 41 39 38 39
50 51 51 50 50 50 50 49 48 48 49 51 49 48 49 48 49 48 47 47 47 46 49 46 40 35 36 36 37 44 49 50 48 47 46 46 46 44 42 40 40 41 40 41 41 41 42 42 44 45 43 42 40 42 40 41 40 43 38 39 39 38 39
51 51 51 51 49 50 52 51 50 50 49 48 49 50 48 47 49 49 48 47 47 48 49 50 43 36 36 36 36 40 48 49 49 48 46 46 44 44 43 42 41 41 40 41 40 41 41 41 42 44 41 39 38 39 41 40 39 39 40 39 37 37 37
49 50 49 50 50 50 50 50 50 50 50 50 49 48 47 47 48 49 49 49 48 48 46 47 43 37 35 37 37 39 43 46 44 49 49 46 46 45 41 41 42 41 39 40 40 40 41 41 43 41 37 38 38 39 39 39 38 39 36 36 37 36 35
50 49 50 49 50 49 49 49 50 49 49 49 49 48 49 46 46 46 49 50 48 47 48 46 44 41 38 37 38 40 40 42 44 49 49 49 47 44 42 41 41 39 39 40 40 40 40 41 41 38 39 39 39 40 38 38 37 38 37 35 36 34 36

ECMWFFLT1_sfc_temp_063.txt.gz
Temp
61 60 59 58 58 60 59 58 59 58 58 59 58 58 58 60 59 58 58 59 59 59 61 60 58 57 58 59 58 57 58 59 59 59 57 57 58 56 56 57 57 58 55 52 56 56 56 54 55 59 60 60 61 61 61 61 61 61 61 62 62 60 60
61 61 60 61 59 59 58 57 58 58 58 57 58 58 57 60 61 59 58 59 59 59 59 58 56 56 56 57 58 58 58 56 57 57 58 56 55 55 56 56 57 56 56 57 56 55 55 55 54 55 56 60 60 60 60 61 62 62 62 60 60 58 58
61 60 61 59 58 58 58 57 57 57 57 57 56 56 57 58 59 60 59 59 57 58 59 56 56 56 56 56 55 56 56 57 56 58 58 56 56 55 56 57 56 55 56 56 53 55 55 54 54 55 56 56 56 57 60 60 61 61 60 59 58 57 57
61 61 60 58 57 57 58 57 57 56 56 57 58 57 57 58 58 59 58 57 58 59 58 57 56 57 55 56 55 55 55 56 55 55 55 54 54 55 55 57 57 58 55 52 55 54 52 52 55 55 56 57 57 57 58 60 59 58 58 57 55 54 55
61 61 61 59 59 58 57 56 56 57 56 56 56 56 57 57 58 57 58 57 57 56 56 56 56 56 55 56 55 55 55 54 54 56 54 54 53 53 54 54 57 56 54 57 57 56 55 56 56 55 55 57 58 58 59 58 58 57 56 56 55 54 54
60 60 60 60 59 59 57 56 56 56 55 58 56 57 56 56 58 58 57 58 56 56 55 56 55 55 55 55 55 54 53 54 53 54 54 53 53 55 53 52 54 55 56 57 57 56 56 57 57 54 51 54 55 56 57 55 54 55 55 56 55 55 54
60 60 60 60 59 59 59 58 57 56 56 56 56 57 56 57 56 56 56 55 55 55 55 54 54 55 55 56 54 54 54 52 53 53 53 52 52 52 52 54 53 55 55 57 57 58 57 57 54 55 54 54 55 55 54 52 55 53 55 54 55 55 54
61 60 59 60 60 59 58 59 57 56 56 56 57 56 56 55 55 55 55 55 55 55 55 55 56 54 54 56 54 54 53 52 53 54 53 53 55 53 53 53 55 55 55 56 57 57 58 58 57 56 56 53 51 49 49 51 48 50 52 54 54 55 53
62 60 59 60 59 59 59 60 58 57 57 56 55 55 56 55 55 55 55 54 54 54 54 53 53 53 53 55 53 54 54 56 54 53 52 52 53 52 52 53 55 53 55 56 57 57 57 57 56 56 57 56 53 48 48 49 46 50 53 52 54 53 53
61 60 60 58 58 58 59 59 59 58 57 56 57 55 55 54 54 55 55 54 54 54 53 53 53 51 52 53 53 52 53 52 53 51 52 53 50 52 52 53 53 54 54 56 58 58 57 57 57 57 57 57 56 52 46 45 47 46 53 51 51 54 53
62 61 60 59 58 58 56 58 57 58 59 58 58 58 54 54 56 57 54 53 53 53 53 53 52 51 51 52 51 52 52 51 52 51 52 52 52 52 52 53 52 53 53 56 56 57 57 57 56 57 56 54 55 55 46 47 48 46 50 51 48 53 52
61 61 61 60 59 59 58 57 57 57 57 57 58 56 55 54 53 53 53 53 53 53 53 53 53 52 52 52 53 52 52 51 52 51 51 52 53 53 53 53 51 52 52 54 54 54 54 57 55 55 56 55 54 52 53 48 48 49 50 52 51 50 53
62 62 61 61 60 60 58 57 57 56 56 57 58 57 55 54 54 53 53 54 53 53 53 54 53 53 52 52 52 54 52 51 52 51 51 51 54 52 54 53 51 52 51 53 53 53 53 53 54 54 57 57 53 52 53 50 49 52 49 48 47 51 53
60 61 61 61 61 60 59 59 58 57 56 56 57 57 55 54 53 54 54 54 54 53 53 54 53 53 53 54 52 52 51 51 52 52 52 52 52 53 54 53 51 52 52 53 51 52 52 51 52 54 55 55 54 53 54 48 48 49 53 48 48 51 51
61 62 62 61 61 61 61 60 58 58 57 56 58 59 57 55 54 54 53 54 53 53 54 54 53 53 54 54 53 53 52 50 51 51 51 52 51 53 52 53 52 51 51 53 51 54 52 52 52 53 54 55 55 53 52 48 48 48 52 51 52 50 51
60 61 61 61 61 62 61 61 61 59 58 57 59 60 57 56 56 54 55 54 54 54 54 54 53 54 53 53 53 52 52 51 52 52 52 51 52 51 53 52 51 52 54 53 51 51 51 52 52 54 53 54 55 55 53 49 47 49 49 50 48 51 51
60 60 61 61 61 61 61 60 61 60 59 59 61 60 60 58 56 55 56 55 55 55 55 55 55 54 54 53 53 53 52 53 52 52 52 52 51 52 51 53 51 52 52 52 50 51 51 51 52 52 51 51 52 54 50 51 50 45 47 52 51 52 51
58 59 59 59 60 61 61 60 60 60 59 60 61 61 60 59 57 56 57 55 57 58 58 57 56 55 54 54 54 54 52 53 53 53 52 53 56 51 52 52 52 52 51 52 50 51 51 51 51 52 52 51 52 51 52 51 49 48 51 51 50 50 48
58 58 58 58 58 59 60 61 61 60 61 61 61 62 62 60 60 56 55 54 55 56 56 56 55 55 54 53 53 53 53 53 53 53 53 52 53 53 52 52 53 52 52 52 51 50 50 50 51 51 51 51 51 51 51 49 50 51 52 48 48 50 49
58 58 57 58 59 60 60 60 60 60 61 62 61 61 60 60 58 58 57 55 56 56 56 55 55 55 54 54 54 54 53 53 53 53 53 54 53 53 54 53 52 52 53 53 52 51 50 50 52 49 50 51 50 51 51 48 50 51 50 49 47 46 48
58 58 58 58 59 60 60 60 61 62 61 60 61 61 60 60 58 57 57 57 57 56 56 55 55 55 55 55 54 53 53 54 53 52 51 51 52 54 53 53 53 53 53 53 53 51 52 52 51 51 49 50 51 51 50 49 49 49 48 46 44 47 43
59 59 59 58 58 59 60 61 62 62 61 60 60 59 57 56 55 55 54 56 56 56 57 57 57 56 55 55 53 54 54 54 54 53 51 52 52 51 52 53 52 52 55 58 55 54 55 55 54 52 50 49 50 50 49 49 48 46 47 47 46 42 43
57 57 58 58 57 57 58 58 58 58 58 58 56 55 55 55 56 56 56 55 55 56 56 57 57 53 54 57 55 54 53 53 53 52 52 51 51 52 52 51 54 60 57 56 54 50 49 51 54 55 52 50 50 49 48 48 47 47 48 48 45 44 45
55 56 55 55 55 56 57 57 57 56 55 54 55 55 55 55 55 56 56 56 55 55 56 56 50 45 46 50 55 54 54 53 52 52 52 52 53 53 52 52 52 54 54 53 48 44 44 44 44 45 47 50 52 52 49 47 45 45 46 44 42 43 42
55 54 53 53 53 55 55 55 54 54 54 53 54 54 55 56 55 55 55 55 56 55 55 52 45 44 43 44 49 54 54 54 53 53 53 53 53 52 53 53 52 52 50 49 48 47 45 43 42 42 42 41 41 43 47 49 47 44 44 45 44 41 42
53 52 52 53 51 52 53 54 53 53 54 54 52 53 54 54 54 53 54 54 54 54 55 49 44 43 43 43 44 50 54 53 54 53 53 53 53 53 53 53 52 51 53 56 52 48 48 46 44 44 44 45 44 42 39 41 44 48 46 46 44 41 40
53 52 52 52 52 51 52 53 52 53 52 52 52 53 52 53 53 53 54 54 54 54 53 48 42 42 42 41 41 44 52 52 51 52 53 53 53 53 53 53 52 51 50 50 48 49 48 48 47 47 46 45 45 45 43 42 41 43 46 47 47 46 42
53 53 53 53 53 52 51 51 51 50 51 52 51 51 52 52 53 53 53 53 53 52 53 46 40 40 40 40 41 41 49 51 51 50 51 51 52 53 54 54 53 51 50 48 48 48 48 47 47 46 44 43 42 41 41 42 42 42 44 43 44 45 44
54 53 53 53 52 51 51 51 52 50 49 50 52 53 51 51 52 51 50 51 51 50 49 40 39 40 40 40 39 44 47 49 49 49 49 49 50 53 53 52 51 49 49 48 47 44 46 48 47 45 43 41 41 41 41 42 40 42 43 45 45 45 42
51 52 53 52 51 49 49 49 49 49 51 50 50 51 52 52 51 50 52 53 51 49 51 41 38 39 39 39 40 45 47 48 47 47 47 47 49 51 50 50 50 48 48 47 44 41 43 46 46 45 44 42 42 43 43 43 42 40 40 40 40 40 39
51 50 51 50 50 50 49 49 49 48 50 50 50 51 50 50 49 51 51 51 50 50 50 43 38 39 39 38 41 47 48 48 47 46 45 46 47 48 49 52 52 49 48 48 42 41 42 47 46 45 44 43 43 43 41 42 43 42 41 41 40 40 39
49 49 48 47 48 48 48 49 49 49 48 48 48 48 48 48 47 47 49 49 51 50 49 44 38 38 38 37 39 46 48 47 47 45 46 45 44 45 46 49 51 49 50 47 41 41 42 46 46 45 44 44 43 41 42 38 42 41 40 40 39 39 39
46 46 46 45 46 46 46 47 47 47 48 48 48 46 46 47 48 48 47 46 48 49 47 43 40 37 37 37 38 47 47 48 47 45 45 46 46 43 43 44 46 44 44 43 41 41 41 44 46 44 44 44 43 43 41 38 38 39 39 37 36 38 38
46 46 46 45 45 46 46 46 45 45 45 47 46 46 46 45 46 47 44 44 45 44 45 43 41 37 37 37 37 43 47 49 48 47 45 45 46 46 45 43 43 43 41 41 41 41 41 42 43 44 44 44 43 44 41 41 39 41 38 38 38 37 38
47 47 48 48 47 47 47 46 46 44 44 44 45 46 44 43 43 46 45 43 44 44 46 48 41 38 36 36 36 40 47 48 48 47 45 46 45 46 46 44 43 43 40 40 40 40 41 41 42 44 42 40 39 40 42 40 38 38 37 36 36 36 36
46 46 46 47 47 46 47 47 46 46 46 45 45 45 46 45 45 44 46 45 44 44 43 44 43 39 37 36 36 36 39 45 43 48 48 46 46 46 43 43 42 42 39 39 39 39 40 40 42 41 39 39 39 40 40 38 38 37 35 35 36 35 34
44 44 45 45 45 45 45 45 46 45 46 45 45 45 46 45 45 44 45 46 47 45 44 43 43 41 38 36 36 37 37 38 41 47 49 49 47 45 43 41 42 40 39 39 39 40 40 41 41 39 39 39 39 40 39 38 36 36 35 34 34 34 34

ECMWFFLT1_sfc_temp_069.txt.gz
Temp
70 67 67 68 70 70 70 69 70 71 72 74 72 73 74 73 73 72 72 72 72 73 72 72 72 72 72 72 71 72 72 72 70 70 68 68 66 66 67 69 68 69 71 70 71 69 65 59 58 61 64 64 64 65 65 65 64 63 63 64 65 64 65
71 69 69 69 69 70 68 68 69 70 70 70 73 72 72 73 72 72 71 71 72 72 73 74 72 73 71 71 69 69 70 71 71 71 70 69 70 68 67 67 70 70 70 70 70 71 67 63 58 59 59 62 63 63 64 65 66 66 65 63 64 64 64
69 69 69 69 69 70 68 67 68 69 71 70 70 71 71 72 72 72 72 72 71 72 72 73 72 71 70 71 71 70 70 70 71 71 70 71 71 71 71 70 68 68 69 68 68 69 69 68 63 60 62 61 58 58 63 63 65 65 65 65 64 64 64
68 68 68 67 69 69 68 68 69 69 70 70 70 70 70 71 70 72 72 72 71 70 71 72 72 73 71 71 70 70 71 70 70 70 70 70 71 71 71 72 71 70 69 68 68 69 68 64 63 61 63 63 61 59 61 63 64 67 68 67 64 64 65
69 69 69 68 69 69 68 68 69 69 69 69 69 70 69 70 70 70 70 70 70 70 71 71 72 73 72 71 71 70 70 70 70 70 70 69 69 71 71 72 72 72 71 72 71 71 70 68 67 64 61 64 65 64 63 63 67 69 70 71 70 65 66
69 70 69 68 69 69 69 68 68 69 68 68 68 68 68 68 70 69 70 71 70 70 70 71 70 70 70 70 70 69 70 70 71 71 71 70 70 71 71 72 73 73 73 73 73 72 72 71 69 63 65 68 63 62 66 68 67 71 72 70 72 71 69
69 70 70 69 69 70 70 69 70 69 68 68 67 68 68 69 70 70 70 70 70 69 69 68 68 69 69 72 70 70 69 69 70 70 71 70 70 70 72 71 72 73 72 72 72 72 71 69 67 65 64 65 66 67 69 70 70 69 69 71 72 72 70
70 70 70 70 69 69 69 69 70 69 69 68 69 68 67 68 67 68 68 68 68 69 69 68 68 68 68 71 71 68 68 68 69 69 70 69 69 69 69 71 71 72 72 73 73 72 73 71 70 68 66 61 62 65 65 69 70 69 68 70 72 72 71
70 70 70 69 70 70 69 70 69 68 68 67 68 68 67 68 68 68 68 68 69 69 69 69 70 70 69 69 69 69 67 69 68 68 68 68 68 68 69 70 71 72 72 72 73 73 74 72 71 70 70 68 64 61 65 64 67 66 70 69 70 71 71
68 68 68 68 68 68 69 69 69 68 67 68 67 68 67 68 69 69 69 68 68 69 69 69 70 70 69 69 69 68 68 69 69 68 68 68 67 68 69 68 71 71 71 71 73 72 71 71 72 72 74 72 71 66 62 62 63 64 67 71 70 69 72
69 69 69 68 68 67 67 67 68 67 68 67 67 67 68 68 68 68 69 69 68 69 70 70 71 70 70 70 69 69 69 69 68 68 68 68 68 69 68 69 71 71 70 71 71 71 71 71 71 72 73 74 74 70 68 64 63 67 67 68 71 70 71
70 69 69 68 68 67 67 67 68 68 67 67 68 67 68 69 69 68 69 69 69 69 69 69 70 70 71 70 69 69 68 71 71 69 68 68 68 69 69 68 69 70 70 70 70 70 70 71 71 73 72 73 72 72 70 69 63 66 70 67 69 73 71
70 69 68 66 66 67 67 67 68 67 68 69 69 69 70 70 69 69 69 69 68 69 70 69 70 70 70 70 70 71 70 71 72 70 70 69 70 69 69 69 70 70 70 71 71 70 71 71 72 73 72 72 71 71 72 70 68 64 67 69 70 71 72
67 69 68 68 68 68 67 68 69 69 68 68 68 69 70 70 71 70 70 70 71 70 69 69 70 70 70 69 70 70 71 72 72 71 70 69 70 70 71 70 69 68 70 71 71 71 72 72 71 72 72 72 72 71 73 71 68 65 65 67 69 71 71
68 68 68 68 68 68 67 68 68 68 68 68 70 70 71 70 70 71 72 72 71 71 71 70 70 71 71 69 69 69 70 72 71 70 70 70 69 69 69 71 70 69 71 72 71 74 73 72 74 73 72 72 73 72 72 73 70 67 64 66 68 71 70
67 67 67 68 68 68 68 68 69 68 69 69 70 71 70 70 70 71 71 71 71 71 71 70 70 71 70 71 71 70 70 71 71 71 70 71 72 71 70 69 69 69 69 69 69 71 71 72 74 75 73 72 72 72 72 74 71 68 66 66 68 69 69
66 67 67 68 67 68 68 67 69 69 70 69 70 69 70 70 69 70 70 70 71 71 70 70 70 72 72 72 72 71 71 71 71 72 72 72 72 72 71 69 68 69 70 69 70 70 71 71 71 73 72 71 70 70 71 70 73 71 69 66 67 71 70
66 66 67 68 67 66 67 68 68 70 69 70 70 68 67 67 68 70 69 70 71 71 71 72 71 71 70 71 72 71 71 72 71 71 71 71 69 72 72 71 70 70 70 69 68 70 71 69 72 72 72 73 71 70 69 71 73 73 70 68 66 70 70
66 66 67 67 66 66 66 67 68 69 70 70 68 67 67 67 68 71 72 72 72 72 72 72 73 72 72 70 70 70 70 70 71 72 71 71 72 72 72 71 69 70 70 70 69 68 69 69 70 70 71 72 73 70 69 70 71 72 71 71 68 66 67
65 63 62 63 64 64 66 67 69 69 70 69 65 64 64 65 66 70 71 72 71 70 70 71 71 71 71 72 71 70 69 69 69 69 70 71 71 71 71 71 70 70 71 71 69 68 68 67 68 69 69 68 70 69 68 69 71 71 71 70 69 69 68
59 60 60 61 63 63 64 65 67 68 69 69 68 68 67 66 65 66 70 72 71 70 70 70 71 71 72 71 71 70 70 69 69 68 67 68 69 70 70 70 71 71 72 72 71 70 69 69 69 69 68 68 68 67 68 69 69 70 69 69 69 68 69
62 62 61 60 61 62 63 63 64 65 66 66 67 68 67 66 65 64 65 67 68 68 69 69 70 70 70 70 70 70 69 69 69 67 66 66 66 68 69 69 69 71 69 65 60 63 64 64 70 69 68 68 68 68 68 69 69 69 69 69 68 68 67
58 59 61 61 61 61 60 60 61 63 63 64 64 64 64 64 65 66 65 64 65 64 65 66 61 55 60 71 70 70 68 69 69 69 67 66 66 65 66 68 67 61 58 57 54 50 49 52 56 66 71 68 68 68 68 68 69 70 69 68 68 67 66
58 57 58 58 58 58 59 60 61 62 60 61 62 62 62 62 63 64 65 64 62 62 63 64 45 42 44 52 67 69 70 69 69 69 69 69 68 67 67 67 68 62 60 58 57 45 47 47 47 48 54 58 62 70 69 67 68 69 69 69 69 68 68
59 58 58 58 59 59 59 60 60 61 61 60 60 60 61 61 61 62 63 64 63 63 65 51 44 42 43 45 52 68 69 69 68 69 70 70 70 69 67 66 67 67 68 68 68 60 52 44 44 44 45 47 47 45 49 65 69 67 68 68 66 67 68
58 58 60 61 60 60 60 60 60 59 59 58 58 58 59 60 61 62 63 63 62 63 67 45 43 42 42 43 44 54 69 69 69 69 69 69 70 69 68 68 67 66 68 57 62 67 65 58 45 41 41 41 42 42 42 42 49 66 70 68 67 65 67
58 58 58 59 60 60 61 60 58 58 58 58 58 58 59 60 60 61 61 63 62 63 67 46 42 42 42 41 40 48 64 65 66 68 68 68 68 68 67 67 68 67 66 65 66 65 65 63 61 59 60 63 62 53 44 42 43 46 59 69 68 66 64
59 59 59 58 58 60 60 60 60 59 60 60 61 61 62 62 62 62 62 63 65 64 63 41 41 40 40 41 40 47 61 62 64 65 65 66 66 66 67 66 67 68 67 66 65 62 64 64 64 63 62 61 62 61 61 61 62 64 65 66 69 67 63
56 58 57 56 56 57 57 57 58 59 61 62 62 62 62 63 62 62 63 63 64 64 59 39 41 40 40 40 39 56 60 61 62 63 64 64 65 66 67 67 67 67 67 66 55 46 55 65 64 63 61 60 60 59 54 45 41 44 57 64 65 63 63
53 55 56 56 55 56 57 56 56 58 61 60 61 62 62 63 63 63 62 63 63 63 63 46 40 40 40 39 46 60 60 60 60 60 61 63 64 65 65 66 67 67 66 66 50 42 44 52 64 63 62 59 58 58 55 51 43 40 40 40 40 40 40
52 52 53 53 53 54 55 56 56 56 58 57 56 57 60 61 62 62 61 61 60 61 62 47 40 40 40 38 45 57 59 60 60 60 61 62 63 64 64 56 58 65 64 64 43 42 41 53 63 62 60 59 58 57 55 54 53 48 41 40 39 39 40
50 50 50 49 50 52 52 52 54 55 57 58 57 58 56 57 57 56 56 56 52 55 58 49 40 40 39 39 46 55 56 60 59 60 61 62 63 64 65 59 51 55 62 58 39 41 41 52 63 61 61 59 56 56 55 57 56 55 56 55 54 54 52
49 49 49 49 49 49 50 50 50 50 52 56 58 58 58 58 56 54 55 55 54 53 54 55 46 38 40 39 39 50 55 59 61 62 62 63 64 65 63 64 57 44 43 43 40 40 41 44 61 62 61 61 61 58 58 58 59 59 58 57 56 56 55
50 50 50 49 49 48 49 48 48 47 48 50 52 52 53 55 55 54 53 54 55 55 54 56 48 38 39 39 38 40 54 56 61 62 63 62 64 64 65 65 66 49 41 41 40 40 41 41 47 63 62 64 64 59 54 58 53 48 56 54 54 54 55
51 52 53 53 52 51 52 53 52 51 52 51 52 52 52 55 56 55 54 54 54 55 54 48 54 41 37 38 37 37 50 55 51 57 59 62 62 63 63 63 64 49 40 41 39 39 40 41 42 60 63 49 43 44 57 57 56 57 56 56 56 55 56
49 50 51 52 53 52 53 53 53 53 54 54 54 54 54 55 57 57 57 57 56 55 56 55 41 47 39 36 36 37 36 43 38 52 58 59 60 60 61 60 57 41 40 40 39 38 39 39 41 56 41 39 42 43 48 57 57 57 56 57 56 55 56
48 48 49 51 52 52 52 52 52 53 53 53 54 54 55 55 56 56 56 56 56 56 56 56 46 38 41 36 35 36 35 36 37 52 57 60 61 60 60 59 52 38 40 39 39 39 39 39 46 40 37 39 40 45 56 55 56 57 54 55 55 55 55

ECMWFFLT1_sfc_temp_072.txt.gz
Temp
71 73 74 75 76 76 76 76 77 77 79 80 79 80 79 79 78 77 77 77 77 78 77 77 77 77 77 77 76 75 74 75 74 72 71 73 71 72 74 74 74 75 76 75 75 66 69 63 63 70 72 70 71 71 71 71 71 69 69 70 70 70 71
76 75 75 76 75 76 75 76 77 78 78 78 80 79 79 79 78 77 77 77 76 77 78 78 77 77 76 75 74 74 74 74 72 72 71 73 74 74 72 73 76 75 75 75 75 75 73 68 65 65 65 69 68 68 69 70 70 70 69 69 70 71 71
75 74 74 74 75 75 75 75 76 76 77 77 77 79 79 79 78 78 78 77 76 77 78 79 77 76 76 75 75 75 75 73 74 73 73 69 73 73 75 74 73 74 75 75 74 74 74 73 68 66 66 66 64 64 68 68 69 70 71 70 70 71 71
73 73 73 73 75 74 74 74 75 76 77 77 77 77 77 79 77 78 78 78 78 78 79 79 78 79 78 76 76 76 75 74 74 74 73 69 71 69 73 70 67 70 71 72 72 74 73 71 70 68 69 72 68 64 66 69 72 74 73 72 71 71 71
74 74 74 73 74 74 73 73 75 75 75 76 76 77 76 78 77 77 78 78 78 77 77 78 78 79 79 79 77 75 75 75 75 75 75 73 72 71 71 69 65 73 75 75 77 76 74 73 72 69 68 70 70 71 70 69 74 76 74 75 74 72 73
75 76 76 75 76 76 76 76 76 76 76 76 76 76 76 76 77 76 76 76 77 77 77 78 78 78 78 77 76 76 75 75 75 75 76 74 74 74 73 75 76 79 77 78 78 77 77 76 74 70 72 73 66 67 71 72 71 76 78 76 76 76 76
75 76 77 77 77 77 77 76 76 76 76 75 75 75 76 76 77 77 76 77 78 77 77 77 77 78 77 79 76 75 75 76 76 75 75 74 74 74 76 76 77 79 78 79 78 77 76 74 73 71 70 71 71 71 75 76 76 74 76 78 78 76 76
76 77 77 78 77 76 76 76 77 76 76 76 76 76 77 77 77 77 77 76 76 76 76 76 77 77 76 79 78 75 75 75 76 75 76 75 74 74 74 76 76 77 77 80 79 78 79 76 75 73 71 67 68 71 71 75 76 75 75 77 77 77 77
77 78 78 77 76 75 75 76 76 75 75 75 77 76 76 77 76 76 76 76 76 75 76 76 77 78 76 77 77 75 75 77 75 75 75 75 75 75 75 76 77 78 77 78 79 78 79 78 77 76 75 74 68 65 69 70 72 72 78 76 79 78 78
76 77 76 74 73 74 75 76 76 76 76 76 75 76 75 77 77 76 76 75 75 75 76 76 77 77 77 77 76 75 75 76 77 76 76 76 76 76 76 75 77 77 78 78 79 78 78 78 78 78 79 75 74 70 66 66 68 70 75 78 74 76 79
77 77 77 75 74 74 76 77 76 74 74 76 76 75 76 76 76 76 76 75 75 75 75 77 78 77 77 77 77 77 77 77 76 77 77 77 76 77 76 77 78 78 77 77 77 77 77 77 77 78 79 79 78 73 71 68 67 72 72 77 78 75 78
77 77 77 77 75 75 76 77 76 75 75 76 76 75 75 76 76 76 76 76 76 76 76 76 77 77 78 76 77 77 77 78 78 76 77 77 76 76 76 75 77 77 77 76 76 77 77 77 78 80 80 80 79 77 75 73 67 72 75 72 77 79 78
77 77 77 77 76 75 74 75 76 75 75 77 76 76 77 76 76 76 76 76 75 76 76 76 77 77 77 76 77 78 77 78 78 77 77 78 79 77 76 75 76 76 77 77 77 77 77 78 79 80 79 79 78 77 77 75 71 68 75 75 76 78 79
76 77 77 77 76 76 75 76 77 76 77 76 77 76 77 77 78 77 77 77 77 76 75 75 77 76 77 76 77 77 78 79 78 78 78 76 78 78 77 76 76 76 77 76 77 77 77 78 78 79 79 80 78 78 78 75 72 69 72 76 76 77 78
76 77 76 76 76 76 76 76 76 77 75 76 77 77 78 77 78 77 78 78 77 77 77 77 77 77 77 75 75 76 77 78 78 78 77 77 77 78 77 77 77 77 78 78 77 79 78 78 80 80 79 79 79 77 79 78 74 71 68 72 74 78 76
75 75 75 75 76 77 76 76 77 76 76 77 78 78 78 77 77 78 78 77 78 78 77 77 77 77 76 76 76 76 77 77 76 76 76 78 80 79 77 76 76 76 77 76 77 78 78 79 81 81 78 78 78 77 78 80 76 72 70 71 74 75 75
74 74 74 75 75 76 76 76 77 76 77 77 77 77 78 78 78 77 77 78 78 78 77 76 77 77 77 77 77 76 77 77 77 77 77 79 80 78 77 76 76 77 77 75 77 77 78 79 78 79 78 77 76 75 76 76 77 75 73 71 72 77 76
73 74 74 75 75 76 76 76 77 78 77 76 77 77 77 78 77 77 76 78 78 77 77 77 77 77 77 77 77 77 77 78 77 77 77 77 75 78 77 77 77 77 76 75 75 76 77 75 77 77 76 78 77 76 75 75 76 77 74 72 72 76 76
68 71 74 74 74 75 76 76 76 77 78 77 77 76 76 77 77 77 78 79 79 78 79 78 78 78 78 77 77 77 77 77 77 78 77 78 78 78 77 77 77 78 77 76 76 76 77 76 77 77 77 78 80 78 75 75 75 75 75 75 73 73 75
66 65 66 71 74 75 76 76 77 77 77 77 76 76 76 76 76 77 78 78 78 78 78 78 78 77 78 78 77 77 76 76 76 76 77 77 78 78 78 78 77 77 77 77 76 76 76 75 75 76 77 76 78 77 75 75 76 75 74 74 74 74 74
63 63 63 64 68 72 74 75 76 77 77 76 75 76 76 75 76 77 78 78 78 77 77 78 78 78 79 78 77 77 76 76 76 76 75 77 77 77 77 77 77 77 77 78 78 77 76 75 76 76 76 76 76 75 74 75 74 75 74 74 74 73 74
63 63 62 63 65 67 69 71 73 75 76 76 75 76 76 76 75 75 74 74 75 75 76 76 78 78 78 77 78 76 76 76 76 75 75 76 76 76 77 77 77 78 74 65 57 60 62 62 75 75 76 76 75 74 74 75 75 75 74 73 73 74 73
62 61 62 63 63 65 67 69 70 71 73 74 74 75 76 76 75 73 72 72 73 73 75 77 63 50 55 75 77 76 75 76 76 76 75 75 75 75 76 76 75 62 58 59 59 53 52 51 54 63 70 74 75 74 74 74 74 75 74 73 73 73 72
62 61 62 63 64 65 65 65 67 67 68 70 71 72 73 74 73 72 71 70 71 73 73 72 44 45 46 47 68 76 75 75 76 75 75 74 74 74 74 77 77 67 63 62 63 47 47 48 49 48 47 49 56 68 74 72 72 73 73 73 73 74 73
61 60 61 61 62 62 61 61 62 63 65 66 67 69 69 70 70 70 69 70 69 71 73 52 43 44 45 44 49 68 76 76 75 76 76 75 76 75 74 74 74 74 74 74 75 69 57 47 45 46 46 48 50 47 48 64 70 72 72 72 72 73 72
62 63 63 63 62 60 59 58 59 61 63 65 66 67 67 66 65 66 66 67 69 69 72 43 44 41 43 45 45 54 77 76 75 75 75 75 76 76 75 74 74 73 76 64 69 74 74 68 48 42 45 43 43 46 47 43 45 63 72 71 72 72 72
64 64 64 64 64 64 63 62 62 64 64 65 65 65 65 65 65 64 65 67 67 70 66 45 41 41 43 42 42 49 73 73 74 75 75 75 75 75 74 74 74 73 74 73 73 73 74 72 70 67 66 68 71 57 42 43 48 43 54 69 71 70 73
63 64 65 64 63 64 65 64 64 64 65 65 64 64 64 64 64 65 65 67 69 66 55 40 41 40 41 41 42 46 70 71 73 74 74 74 74 73 74 73 73 73 74 73 73 70 72 72 71 70 70 70 71 71 72 71 70 71 72 72 73 73 73
62 64 64 64 62 62 63 63 62 63 64 64 64 65 65 66 64 65 66 67 67 62 51 39 40 41 40 42 39 61 71 71 72 73 73 73 73 74 74 73 72 72 73 73 62 52 59 70 71 70 68 70 70 70 65 48 40 42 52 65 70 70 68
59 61 62 63 62 60 59 60 62 65 65 66 65 66 66 67 68 67 67 67 67 62 55 43 39 40 41 39 46 69 70 72 72 71 71 72 72 73 72 72 72 72 71 73 55 46 47 51 69 69 69 68 67 68 65 57 45 40 39 39 39 40 41
59 60 61 63 62 62 63 64 63 64 64 64 64 65 66 65 65 66 66 65 64 63 57 45 39 40 39 39 46 65 72 71 71 71 71 71 72 72 71 61 64 71 70 71 44 44 44 53 66 68 68 67 65 65 62 60 58 51 41 41 40 40 41
58 59 59 60 62 62 61 60 61 64 65 66 64 64 63 63 64 65 64 62 56 62 60 50 39 40 38 39 49 67 70 71 70 70 71 71 71 72 72 63 54 59 65 57 39 42 41 52 66 68 68 67 64 65 63 61 58 58 57 57 54 55 54
55 56 57 58 58 59 61 61 61 61 62 64 64 64 63 64 61 60 62 64 63 64 62 58 47 37 39 40 39 55 69 70 70 70 70 70 70 71 70 71 58 43 41 43 40 39 41 42 61 68 69 67 65 63 65 62 62 63 61 61 61 62 62
57 57 57 58 58 59 59 58 58 57 54 55 56 58 58 60 61 61 62 62 61 59 58 58 48 37 39 38 38 42 67 65 66 66 66 66 68 69 71 72 64 43 42 43 40 39 40 40 43 58 65 67 66 64 61 65 61 52 64 64 63 62 63
59 59 61 61 60 60 61 61 60 59 59 57 57 57 58 59 58 56 58 59 59 57 52 49 55 41 37 38 38 34 53 58 54 62 62 64 64 69 69 70 69 48 40 41 40 39 39 40 40 50 55 41 42 45 64 67 65 65 65 63 64 63 64
57 58 58 60 60 60 61 61 62 63 62 62 61 60 60 61 61 61 61 61 61 60 57 53 43 49 38 37 35 38 35 45 39 53 65 67 67 68 70 68 59 39 42 39 39 38 39 38 41 50 41 39 43 45 55 66 65 64 64 64 64 63 63
53 54 55 57 58 58 57 59 60 60 61 62 63 61 61 61 62 61 61 62 63 63 63 61 46 43 46 36 38 36 37 36 35 53 59 65 67 66 66 65 56 40 41 39 38 38 38 40 51 41 41 42 40 44 63 66 63 64 61 62 61 62 62

ECMWFFLT1_sfc_temp_075.txt.gz
Temp
69 68 68 68 70 76 76 77 77 76 80 81 80 81 81 80 80 79 79 78 78 79 79 78 76 76 75 77 75 76 73 74 72 70 71 76 73 73 75 75 74 72 71 71 71 69 66 62 64 68 68 70 72 72 73 73 73 72 71 73 74 74 75
70 68 68 69 69 74 74 77 77 79 79 80 81 80 81 81 79 79 79 78 78 78 79 77 78 79 77 76 75 74 73 72 71 71 70 73 74 73 73 74 73 69 71 69 71 71 69 66 64 65 65 70 71 71 72 72 73 73 73 73 75 76 74
71 69 67 67 71 72 75 75 77 77 79 78 79 80 80 81 80 79 79 79 78 79 80 80 78 76 76 76 75 74 74 73 74 73 72 73 75 73 72 73 73 72 71 70 71 70 66 68 65 66 66 66 64 68 72 72 72 72 73 73 74 76 75
70 69 68 70 73 73 75 75 76 77 78 78 78 78 79 80 79 80 79 79 79 79 80 79 78 79 77 76 76 76 74 72 74 74 74 74 74 74 73 75 71 72 69 66 66 69 64 63 67 67 68 70 69 66 69 73 73 74 75 74 74 74 76
68 70 69 70 72 73 75 74 76 77 77 77 77 77 77 78 79 79 79 79 79 79 79 80 80 81 80 79 78 77 76 76 76 75 74 73 73 74 73 75 73 73 71 71 70 70 69 65 69 68 66 70 73 73 73 73 77 75 76 76 76 75 76
66 69 72 72 73 75 75 76 76 76 77 76 77 77 77 78 79 77 78 78 78 79 79 80 80 80 80 80 78 77 77 75 75 75 75 72 72 73 74 74 75 73 72 72 69 71 73 74 71 70 73 75 69 70 74 75 73 74 75 76 78 77 76
68 70 70 74 75 76 77 77 77 77 78 77 77 78 78 79 79 78 78 78 79 79 79 78 79 80 79 81 78 77 76 76 77 75 75 74 72 72 71 72 73 71 69 71 67 73 73 74 73 71 71 71 71 71 74 74 76 73 73 74 77 79 77
65 68 75 76 77 78 78 77 78 78 77 78 78 78 79 78 78 78 78 78 78 78 78 78 79 78 78 81 79 76 76 76 76 76 75 75 73 72 70 72 69 69 69 68 75 74 78 75 75 74 72 67 67 70 69 73 75 74 73 75 78 78 78
68 72 75 77 78 78 78 78 78 77 78 78 78 78 78 78 77 77 78 78 78 77 78 78 78 79 78 78 77 76 75 78 75 75 75 75 74 75 74 73 72 71 74 76 76 75 79 78 76 75 74 72 68 65 70 70 72 71 76 73 75 78 79
70 75 76 76 77 78 78 78 77 77 76 77 77 77 77 78 78 78 78 77 76 77 77 78 79 79 78 78 77 77 76 77 77 77 77 76 76 75 76 76 75 73 76 78 75 77 77 77 78 77 78 74 73 69 66 66 68 70 73 76 72 76 79
75 77 77 76 77 77 77 77 76 75 75 77 77 77 78 77 77 78 77 76 76 77 77 78 80 79 79 78 78 78 78 78 77 77 78 77 76 76 76 76 77 77 77 76 76 76 77 77 78 78 79 78 76 72 70 67 67 71 72 77 78 76 78
77 77 78 78 77 77 77 76 76 76 77 77 77 77 77 78 77 77 77 76 76 77 77 78 78 78 79 78 78 78 78 78 78 77 78 77 77 76 75 75 77 75 76 76 77 77 77 77 78 79 79 79 77 75 72 70 67 72 77 74 77 79 78
79 78 77 77 77 77 78 77 76 76 76 77 76 76 78 78 77 77 77 77 76 77 77 77 78 79 78 77 77 78 78 79 79 78 78 78 80 77 76 75 76 76 76 77 76 76 77 78 79 81 80 78 79 78 75 72 70 68 75 76 76 78 79
77 78 78 78 77 78 78 78 77 77 78 77 77 76 78 78 79 78 78 78 78 77 77 77 78 78 78 77 78 78 79 80 79 79 78 78 80 78 77 76 76 77 77 76 76 77 78 79 80 80 80 80 78 78 78 74 71 70 73 77 76 78 79
77 78 77 77 77 78 77 77 76 75 75 76 77 77 79 78 78 79 79 79 78 78 77 78 78 78 78 77 77 78 78 79 79 78 78 78 78 79 77 76 77 77 78 78 76 79 79 79 81 81 80 80 80 79 79 77 74 71 69 73 75 79 77
76 76 76 76 76 77 76 76 77 76 76 77 78 78 78 77 78 79 79 79 79 79 78 78 78 78 77 77 77 77 78 78 77 77 77 78 79 79 77 76 76 77 77 76 76 78 78 80 82 81 80 80 79 79 80 80 75 71 70 71 75 75 75
74 74 75 76 76 76 76 77 77 77 78 78 78 78 78 79 79 79 78 79 79 79 79 78 78 78 78 78 78 77 78 77 78 78 79 80 80 78 77 75 75 76 77 75 77 77 79 80 79 79 78 78 77 77 77 77 77 74 73 71 73 77 76
69 74 75 76 75 76 77 77 77 79 78 78 79 78 78 79 78 79 77 79 79 79 79 79 78 78 78 78 78 78 78 79 78 79 79 79 77 79 77 77 77 77 77 76 76 77 78 77 80 79 78 79 78 77 77 76 78 78 74 72 72 76 76
64 71 74 75 75 75 76 77 77 78 79 78 78 78 78 79 78 79 79 80 80 80 80 79 79 79 79 79 78 78 78 78 78 79 78 79 79 79 78 78 78 78 77 75 75 76 77 76 78 78 78 79 81 78 76 76 76 76 76 75 73 73 75
66 67 71 74 75 76 77 77 77 78 78 78 77 77 78 79 78 79 80 80 80 79 79 79 79 78 79 79 78 78 77 77 78 78 79 79 79 79 79 79 78 78 77 78 77 76 76 76 76 76 77 77 78 77 74 75 76 75 74 74 74 74 74
66 68 70 73 75 75 76 76 77 78 78 77 77 78 78 77 78 79 79 80 80 80 79 79 80 79 80 79 77 77 77 77 77 77 77 78 78 78 78 78 78 79 79 78 77 77 76 76 77 76 77 77 77 76 75 75 74 75 74 74 73 73 74
67 68 70 71 73 75 75 75 77 77 77 77 77 78 78 78 77 78 79 79 80 79 78 78 79 78 79 78 78 77 77 77 77 76 76 77 77 78 78 78 78 77 70 63 56 59 59 61 72 71 71 73 74 74 74 75 71 74 74 72 72 73 73
67 67 67 68 69 71 74 75 75 76 76 76 76 77 78 78 78 77 77 77 77 76 77 75 56 45 51 70 77 77 77 77 77 77 76 76 76 77 77 77 74 60 59 59 58 52 52 49 52 64 71 72 72 71 71 72 72 71 70 71 71 70 70
67 67 67 67 68 69 69 70 71 72 73 74 74 76 76 76 76 76 76 75 74 75 75 66 42 42 42 43 66 76 76 76 77 76 75 75 75 75 76 78 76 68 67 65 65 50 47 51 51 48 47 49 56 66 70 69 70 72 66 67 64 64 65
64 66 66 67 67 66 66 66 66 68 69 69 70 72 73 74 74 74 75 75 74 73 67 46 41 42 41 41 47 65 76 77 76 76 77 76 77 76 75 75 76 75 75 75 75 70 58 48 48 49 49 48 46 45 48 62 67 68 70 70 67 67 67
61 62 63 63 63 63 62 60 62 65 66 67 69 68 68 68 69 70 70 71 72 73 63 42 42 43 43 42 43 53 76 77 76 76 76 76 77 76 75 75 73 73 74 67 71 74 75 70 50 45 46 45 44 44 46 45 46 62 68 67 67 68 70
60 61 61 61 61 61 61 59 60 61 62 64 65 65 66 66 66 65 65 66 67 65 56 44 41 41 43 41 42 46 73 74 75 76 76 76 75 74 75 74 71 71 72 71 72 73 74 74 72 68 68 70 72 63 47 43 41 40 51 65 67 67 70
62 62 63 63 64 64 61 60 61 62 62 62 63 65 65 65 65 65 66 67 66 57 50 40 39 40 40 41 40 45 66 71 73 74 73 69 70 74 74 74 74 73 74 71 68 66 70 71 69 69 71 71 71 71 72 72 70 70 69 69 71 71 71
64 64 63 64 63 63 62 62 63 65 65 65 66 66 67 67 66 67 67 68 62 56 50 39 39 39 40 41 39 54 64 67 69 71 71 69 65 68 73 74 73 74 73 74 56 50 60 70 72 71 69 70 71 70 68 49 43 45 53 60 63 63 66
60 60 60 61 60 59 60 63 65 67 67 67 67 67 66 66 67 66 67 65 61 58 54 42 39 39 39 38 45 59 64 69 69 69 70 67 67 74 72 74 74 73 70 68 52 49 48 55 69 69 68 68 68 69 68 56 43 39 39 39 39 39 40
62 61 62 62 61 60 60 60 61 64 66 66 65 66 67 66 65 64 61 61 61 57 53 44 39 39 39 38 42 54 63 68 68 66 68 70 73 73 73 63 65 72 70 63 45 43 43 57 68 67 67 67 66 66 68 64 62 53 40 41 40 40 42
61 61 61 61 61 60 61 62 61 60 60 63 66 66 66 65 64 64 63 61 57 58 55 48 39 39 38 39 44 53 61 66 67 67 70 71 70 70 71 63 52 51 56 49 40 46 40 52 66 67 67 66 63 63 65 66 63 61 60 61 60 59 57
60 61 61 60 61 61 64 65 65 64 62 61 62 63 60 62 62 62 62 62 62 62 58 53 44 38 38 39 38 47 58 63 63 62 63 63 64 63 60 59 53 42 42 42 42 39 43 40 58 65 66 65 63 60 62 64 64 65 63 63 63 62 62
60 61 62 60 58 59 61 62 63 64 65 66 65 63 61 62 61 61 60 59 55 56 56 55 46 37 39 39 38 42 60 61 60 64 65 63 64 65 64 60 61 42 42 41 41 39 40 40 42 58 62 65 62 54 50 62 62 54 65 64 63 63 64
59 60 62 63 61 59 60 62 62 62 63 62 61 60 59 59 59 60 60 59 58 57 54 51 56 42 38 39 39 39 54 57 51 55 61 65 66 66 66 62 59 46 39 41 38 39 38 40 38 53 59 48 40 42 60 63 67 64 64 65 65 64 64
58 59 60 62 62 62 63 62 63 63 62 62 62 61 60 60 59 59 60 60 59 56 54 52 45 49 40 40 39 40 38 44 39 51 57 60 65 67 67 59 53 40 40 39 38 37 38 37 40 52 46 43 47 41 46 64 65 64 63 64 64 63 64
58 58 59 60 61 61 61 63 63 64 66 65 64 64 64 64 64 62 61 60 59 57 54 51 46 45 46 38 42 40 41 39 39 48 52 60 65 62 59 58 50 36 39 39 38 38 38 38 50 42 40 42 41 45 60 62 59 62 59 56 57 60 62

ECMWFFLT1_sfc_temp_078.txt.gz
Temp
67 67 68 68 68 67 66 67 67 68 70 70 68 68 70 70 70 69 71 73 74 75 74 73 73 73 72 73 72 72 71 70 69 67 66 67 66 65 68 67 68 68 68 67 68 64 61 57 58 64 65 65 65 67 67 68 68 68 67 67 66 67 67
69 69 69 68 67 67 66 66 66 66 67 70 70 69 70 74 70 68 73 73 72 74 74 74 73 74 72 71 70 70 70 69 69 68 68 66 67 64 66 66 67 66 66 66 66 66 62 60 58 60 60 63 65 66 67 67 69 68 68 68 68 67 67
69 69 69 68 67 67 65 65 65 65 66 68 71 72 74 76 74 74 75 75 73 74 74 74 73 71 71 72 72 71 70 69 69 69 68 68 69 67 68 66 65 63 63 62 63 64 63 63 60 59 61 60 59 62 66 65 66 67 68 68 68 68 66
68 67 67 66 66 66 65 65 65 64 65 68 72 73 74 76 75 75 74 75 75 74 74 74 72 72 71 72 72 71 71 70 69 69 69 70 69 68 68 66 63 64 63 62 62 64 63 61 62 61 62 65 63 61 64 67 68 69 69 68 67 66 66
69 68 67 66 66 66 66 65 65 66 66 71 72 72 73 74 73 73 74 74 73 73 73 74 74 74 73 73 71 70 70 70 71 70 69 69 69 69 68 67 65 67 67 66 66 64 63 62 64 62 62 66 66 66 68 67 70 70 68 70 69 67 67
70 70 69 68 68 67 68 68 68 68 70 71 71 72 72 73 72 72 73 72 72 73 73 74 73 74 73 73 72 72 71 70 70 70 69 68 68 68 67 68 69 69 69 68 68 66 64 65 65 62 66 67 62 64 67 66 63 69 71 69 70 70 69
70 70 69 70 70 70 70 71 71 71 71 71 71 71 72 74 73 73 73 73 73 73 73 73 74 75 74 75 72 71 71 71 71 70 70 69 69 68 69 68 68 68 67 68 66 67 66 65 63 64 64 64 65 65 67 67 68 67 69 70 70 71 71
69 69 69 71 70 71 72 72 72 72 72 72 72 72 73 72 72 72 72 72 72 72 72 73 74 72 72 74 73 70 70 71 72 71 70 70 69 69 68 68 67 67 67 69 67 67 69 66 66 65 64 61 61 63 62 66 67 66 66 69 72 71 70
68 68 68 69 71 72 72 72 72 72 72 72 72 72 72 72 72 72 72 72 72 72 72 73 72 72 73 71 70 70 70 74 70 70 70 70 69 69 68 68 67 67 68 69 69 67 69 68 68 69 66 65 61 59 62 62 64 64 69 66 69 72 70
68 68 69 69 72 73 73 72 72 72 72 72 72 72 72 72 72 71 71 71 71 72 72 72 73 72 72 71 71 70 70 71 71 71 70 70 69 69 69 68 68 67 68 70 70 70 69 70 71 69 69 66 66 61 59 59 61 62 66 70 67 69 71
69 70 71 72 73 72 72 71 71 71 71 72 73 73 72 72 72 73 70 70 71 71 72 73 73 73 72 70 71 71 71 71 70 70 71 71 70 70 69 69 69 69 69 68 68 71 70 70 69 69 68 69 67 63 62 60 59 63 63 68 70 67 69
69 71 73 73 73 72 71 71 71 71 72 72 72 71 71 71 71 71 70 70 71 71 72 72 71 72 72 70 71 70 71 71 70 70 70 70 71 70 69 69 69 68 70 68 69 71 71 70 69 70 69 70 68 66 65 62 58 63 69 64 68 72 69
70 73 73 72 72 72 73 73 72 71 71 72 72 72 72 72 71 70 71 71 71 71 71 71 72 71 70 71 71 71 71 72 72 71 70 71 75 72 69 69 70 69 69 70 71 70 70 70 71 71 71 69 68 68 65 64 62 61 66 66 67 70 71
69 72 72 73 72 72 72 72 72 71 72 71 72 72 72 72 73 72 72 72 72 71 70 71 72 71 70 71 71 71 72 73 72 70 70 71 73 72 70 69 69 71 70 69 69 69 70 70 70 70 70 68 68 68 68 64 62 61 64 65 66 69 71
64 67 71 71 71 73 72 71 71 72 71 72 72 73 74 72 72 73 73 73 72 72 72 72 72 72 70 71 69 73 73 73 71 71 71 71 70 73 70 70 69 70 72 71 69 73 72 72 73 72 70 70 69 68 69 68 64 60 61 64 64 69 68
66 67 71 71 72 73 72 71 72 71 72 72 73 73 73 72 73 73 73 72 72 71 72 72 71 72 70 70 70 71 71 71 69 71 71 70 72 72 69 69 69 69 71 69 69 71 71 72 74 75 72 70 69 68 70 70 66 62 62 62 64 66 66
65 67 69 70 71 72 72 71 72 72 73 72 73 72 73 73 73 72 72 72 72 72 72 71 72 72 72 70 71 72 72 69 72 70 71 72 73 71 69 68 68 69 69 68 69 69 71 71 70 70 71 69 67 68 66 67 68 65 62 62 62 68 66
63 65 68 70 70 71 72 72 71 73 72 72 73 72 73 73 72 72 72 73 73 72 72 72 72 71 70 70 71 71 70 71 71 72 70 71 72 71 69 68 70 70 68 68 68 69 70 69 73 70 69 70 68 67 67 66 68 67 64 62 63 65 66
63 65 67 69 70 71 71 71 71 72 73 73 72 73 72 72 72 73 73 73 72 72 73 71 72 72 71 71 70 70 70 71 71 71 72 71 71 71 69 70 70 69 70 68 68 69 69 71 71 70 70 71 71 69 65 68 66 65 65 63 64 63 65
65 67 67 69 70 71 71 71 72 73 73 73 72 72 73 73 73 73 74 73 73 72 72 72 71 70 72 72 71 70 70 71 70 70 72 71 71 71 71 71 70 70 70 70 70 69 69 69 68 68 68 67 70 68 66 67 68 67 65 64 65 64 62
66 67 68 69 70 70 70 71 71 72 72 71 71 73 72 72 72 73 73 73 72 71 71 71 72 72 72 71 70 70 70 69 69 70 70 71 71 71 70 70 70 69 67 67 67 65 66 66 67 66 66 67 67 65 65 65 66 66 65 64 63 61 62
67 68 69 70 69 69 70 70 71 71 71 71 72 72 73 73 73 73 73 73 72 72 70 65 63 66 72 71 70 70 70 70 69 70 70 69 70 72 71 70 68 66 65 61 57 59 59 61 66 64 65 65 65 64 64 65 64 61 62 62 61 63 63
65 66 66 67 67 69 69 70 70 69 71 71 71 71 71 71 72 72 72 71 71 69 63 58 49 44 47 63 71 72 70 70 71 69 70 69 69 71 71 68 67 64 60 59 55 49 48 50 55 61 62 62 62 63 62 62 62 62 61 59 58 59 58
62 63 65 65 65 65 66 66 68 69 69 69 70 70 71 70 70 71 71 70 68 62 56 49 43 40 42 45 60 66 69 69 71 71 69 70 67 69 70 70 67 64 64 62 56 48 49 48 46 47 48 52 58 61 61 60 61 61 60 61 59 58 59
62 62 63 63 63 64 64 65 65 66 66 66 66 67 67 69 69 69 69 70 65 59 53 44 40 41 41 41 46 60 66 69 71 69 69 69 70 67 65 64 67 68 69 67 67 60 55 51 51 47 47 47 47 47 48 60 60 59 60 59 59 59 59
61 60 60 60 61 62 62 62 62 63 64 65 66 65 65 65 64 65 66 64 60 57 54 42 41 42 41 40 41 54 67 67 68 68 68 66 64 64 61 59 60 61 67 68 69 67 66 61 50 47 47 46 46 44 43 41 48 59 61 59 57 57 60
59 59 59 59 60 60 60 59 59 60 61 63 63 63 63 63 63 64 63 60 56 53 50 42 40 41 41 41 40 47 65 65 66 68 66 63 61 62 63 62 60 61 60 61 64 67 68 65 61 59 59 60 62 59 48 44 43 44 52 60 59 57 59
59 59 59 59 58 58 58 58 59 59 60 61 62 62 61 61 62 62 62 58 55 51 46 40 40 40 40 40 41 45 63 64 66 66 67 64 62 62 63 62 61 61 60 61 61 56 61 63 64 64 63 64 64 63 65 63 60 59 57 58 60 60 59
59 59 59 59 58 58 57 58 59 59 59 61 63 63 62 62 62 62 62 59 56 51 45 39 39 39 39 39 42 56 61 62 63 65 65 65 63 63 63 61 61 59 61 61 54 43 47 54 63 64 63 63 62 62 62 43 42 44 51 55 55 54 55
58 58 58 58 58 58 57 58 58 60 61 61 62 62 62 63 64 63 61 59 56 52 47 40 38 39 39 38 45 56 60 62 63 63 63 63 63 62 61 60 61 59 59 60 49 43 43 47 59 62 62 61 62 61 62 51 41 40 40 42 42 42 43
57 57 58 58 58 58 58 58 58 59 62 62 62 63 62 61 61 61 59 56 54 50 47 42 39 39 39 38 44 54 58 60 62 62 61 61 61 60 59 58 59 60 58 57 42 41 38 50 60 61 60 60 59 59 59 56 55 50 41 41 41 42 43
58 56 56 58 59 58 57 58 57 58 57 58 59 61 61 61 60 59 58 56 54 52 49 45 40 40 40 40 44 52 56 60 61 61 60 60 59 59 58 51 49 50 53 47 39 40 39 48 58 59 59 58 57 57 57 58 56 53 53 53 52 52 52
58 57 57 57 58 58 59 59 59 57 57 57 56 56 56 58 58 57 56 55 54 53 49 47 43 40 41 42 42 52 58 55 54 56 61 62 61 59 57 53 46 39 38 38 38 38 39 39 49 55 57 57 57 56 57 57 59 57 56 56 55 54 55
58 59 58 57 57 58 59 59 59 60 59 57 56 55 55 55 56 55 55 54 53 53 52 49 44 41 42 42 42 47 54 50 51 54 57 60 61 61 58 55 51 42 39 39 38 37 38 38 39 49 54 55 52 47 47 57 56 51 57 57 56 55 56
57 58 60 60 59 58 59 60 60 60 59 58 57 56 55 55 54 53 55 55 54 52 51 50 50 42 42 42 41 42 49 49 46 52 55 57 58 56 55 53 50 43 38 40 38 38 37 38 37 48 52 43 41 42 50 52 56 57 57 57 57 56 56
57 58 58 59 59 58 59 60 60 59 58 58 58 57 57 56 56 55 54 54 53 52 51 49 45 47 42 42 42 42 41 44 42 51 51 54 56 54 55 53 51 43 39 39 39 38 38 37 43 46 36 39 40 39 42 53 55 56 55 55 55 55 55
57 57 57 57 57 57 57 57 58 58 59 58 58 57 56 56 57 56 55 53 53 53 53 51 46 44 45 42 42 42 41 41 41 45 50 53 54 53 51 51 47 39 39 38 38 39 37 37 40 37 37 38 38 41 49 52 53 54 51 52 52 53 53

ECMWFFLT1_sfc_temp_084.txt.gz
Temp
63 63 63 63 64 65 64 64 64 64 65 66 65 66 66 66 66 65 65 65 65 65 65 64 64 64 65 66 65 65 65 65 64 63 61 62 61 61 60 60 59 61 62 57 60 59 58 56 57 61 61 62 61 62 62 61 61 62 60 61 61 61 61
62 62 63 64 64 65 64 63 64 64 64 65 65 65 65 66 66 65 65 65 65 65 66 65 64 65 65 64 64 64 64 64 65 64 63 61 61 60 60 58 60 59 59 59 60 59 58 57 57 58 58 61 61 62 61 63 63 63 62 61 63 62 60
61 62 64 63 64 64 64 63 63 64 64 63 63 64 65 65 65 65 65 65 65 65 66 65 65 65 65 65 65 65 64 64 63 63 64 62 62 61 61 60 59 57 58 58 57 57 58 57 57 57 58 58 57 60 62 62 62 61 61 61 61 61 60
62 62 63 63 63 63 63 62 62 62 62 62 63 64 64 65 65 65 65 65 65 66 66 65 65 65 65 64 64 64 64 64 63 63 62 62 62 61 61 61 60 61 60 58 57 58 57 55 57 58 58 59 58 58 60 61 62 61 61 60 60 60 59
62 62 62 62 62 62 62 62 62 62 61 62 62 62 63 64 64 64 65 65 65 65 66 66 66 66 65 65 64 64 64 63 63 63 62 61 61 61 61 60 60 59 57 59 60 60 58 57 59 58 58 58 58 59 62 61 61 61 60 61 60 60 61
63 62 62 62 62 62 62 61 61 61 60 61 61 62 63 63 63 63 64 64 64 65 65 66 65 66 66 65 65 64 63 63 62 63 62 61 61 62 61 60 60 60 59 60 61 60 59 60 60 57 58 60 56 57 59 61 59 62 61 61 61 61 61
63 63 62 62 61 61 61 61 61 62 61 62 62 62 63 64 64 64 65 64 64 64 64 65 65 65 65 65 64 63 63 63 62 62 62 61 61 61 61 60 60 60 59 61 61 60 60 59 57 58 58 57 57 57 59 58 61 60 62 62 60 60 59
62 63 63 63 62 61 61 62 62 62 62 62 63 64 64 64 64 63 64 64 63 63 63 64 65 64 63 64 64 64 64 62 63 62 61 61 62 60 59 60 61 59 60 60 61 61 62 61 60 59 59 56 55 57 57 58 58 58 59 60 61 60 59
62 63 63 63 62 62 62 62 62 62 63 63 63 63 64 64 63 63 64 64 64 64 63 64 64 63 62 62 61 62 62 64 63 62 61 62 62 61 61 59 61 61 61 61 61 61 62 62 62 62 61 60 57 54 56 55 56 56 61 58 60 60 59
61 61 62 62 62 62 62 62 62 63 62 62 63 64 64 63 64 64 64 64 64 63 63 63 64 63 62 62 62 61 62 62 63 62 61 62 61 60 60 61 61 61 60 60 61 61 61 62 63 63 63 62 60 57 54 54 54 53 57 59 55 58 60
61 62 62 62 61 61 62 63 62 63 62 63 64 64 64 63 64 65 63 63 62 62 62 63 64 63 62 61 62 62 62 62 62 61 61 62 61 60 59 59 59 61 60 60 60 60 61 62 62 63 63 62 60 59 56 54 53 54 56 58 57 56 58
62 62 62 62 62 62 61 62 63 63 63 63 63 63 63 63 63 62 62 61 61 61 60 62 62 62 62 61 60 61 60 62 61 60 60 62 60 61 60 60 58 60 60 61 59 60 61 61 62 63 62 61 61 59 58 55 53 54 58 56 57 60 59
63 63 63 62 62 62 62 62 63 63 63 63 63 63 63 63 62 61 61 61 60 59 60 61 61 60 61 61 61 62 59 60 61 61 60 60 63 61 60 60 60 61 60 60 60 61 60 61 62 62 62 61 60 59 58 57 55 55 57 58 56 58 59
62 62 62 62 61 61 62 62 63 65 63 63 63 63 63 63 62 62 60 60 60 58 59 59 60 60 60 60 59 60 58 60 61 59 60 59 62 61 61 61 60 60 59 61 59 60 61 61 61 62 61 60 60 59 59 56 55 54 56 56 56 57 58
62 62 61 62 61 62 62 62 63 64 64 63 64 63 63 62 62 62 61 59 58 59 60 60 59 60 61 59 58 60 59 58 59 59 58 59 59 63 61 60 61 60 60 61 59 61 60 60 62 61 60 61 60 59 60 59 54 55 54 54 54 56 56
62 61 62 62 62 63 64 63 65 64 64 62 63 63 62 62 62 61 60 59 59 58 60 60 59 60 59 59 58 59 58 58 58 58 58 59 60 60 60 60 60 60 61 61 58 58 59 61 61 63 61 60 61 60 60 61 57 54 54 52 54 55 55
61 61 62 63 64 65 66 65 65 65 64 63 63 63 63 62 62 61 60 59 59 59 59 59 59 59 59 58 57 58 57 57 59 59 60 59 59 60 60 60 60 60 60 59 58 59 58 58 57 61 60 59 60 60 60 59 62 58 53 54 53 57 56
61 61 61 62 63 65 66 66 64 64 63 63 63 62 62 62 62 61 61 60 59 59 59 59 60 58 58 56 56 57 56 56 57 59 60 60 62 59 59 60 59 58 57 59 56 56 56 57 58 57 59 59 60 60 60 59 59 59 57 56 54 54 54
60 61 61 62 62 64 65 65 65 63 64 64 62 62 61 61 62 62 62 62 60 59 58 59 60 59 58 56 56 56 56 57 59 60 59 60 60 59 60 58 58 57 58 58 56 56 56 57 58 56 57 58 60 59 58 56 57 58 58 57 55 53 52
58 60 61 62 63 63 64 65 64 63 64 65 63 61 62 62 61 62 63 62 61 59 58 59 60 60 58 56 56 57 57 57 59 59 58 58 58 58 58 58 57 57 57 57 57 57 58 57 58 56 56 56 57 58 58 58 58 57 56 55 53 54 55
58 59 60 62 64 64 64 64 64 62 63 64 62 62 63 63 60 61 59 58 56 57 58 57 55 56 57 57 56 56 58 59 58 58 57 58 58 58 58 58 58 58 57 56 56 56 56 56 57 57 55 56 56 57 56 55 55 55 54 53 55 53 52
58 59 59 60 61 62 63 63 62 62 63 63 63 62 61 60 58 58 57 56 54 53 52 50 50 50 56 58 57 58 59 60 59 58 58 58 58 58 59 58 58 58 60 58 55 55 55 57 58 57 55 55 55 55 54 54 53 52 52 53 53 52 53
59 58 59 59 59 60 61 61 62 62 63 62 61 60 59 59 58 57 55 53 52 51 49 49 47 46 53 59 58 59 59 59 59 59 59 58 57 58 58 59 61 61 59 57 54 49 48 50 53 55 54 55 54 54 53 53 53 52 53 53 53 51 51
58 58 58 58 58 58 59 61 61 61 60 60 59 59 59 57 56 55 53 52 50 48 47 47 43 43 49 53 59 59 59 58 58 59 58 58 57 57 56 57 57 60 59 57 52 46 46 46 46 47 48 51 54 55 52 52 54 52 52 52 50 49 49
57 57 58 58 58 57 59 60 60 59 59 59 59 58 57 55 54 53 52 51 49 48 46 43 40 43 48 51 55 60 59 59 58 58 58 57 57 57 57 57 57 57 58 58 58 55 51 46 45 45 46 47 45 43 46 54 53 51 51 51 51 51 49
56 56 56 57 57 57 58 59 59 59 59 59 58 56 55 54 52 52 51 49 48 48 46 42 41 43 45 47 50 56 59 59 59 58 58 58 57 56 55 56 56 57 59 63 59 58 57 54 47 46 47 48 48 47 42 41 43 52 52 52 53 50 50
55 55 55 56 57 57 57 56 57 58 58 58 57 55 54 52 52 50 50 49 48 47 46 43 41 44 46 46 48 53 58 58 58 58 58 57 57 57 56 55 55 55 55 56 55 56 57 56 55 55 54 54 54 53 49 44 42 42 47 52 52 52 51
55 55 55 55 56 56 56 56 56 56 56 56 55 53 52 51 51 50 50 50 48 45 44 41 40 43 46 47 49 52 58 59 58 57 57 56 56 56 57 57 56 55 54 51 47 46 54 55 55 55 53 53 52 54 54 53 51 50 49 51 51 53 52
54 55 55 55 55 55 55 56 56 56 56 55 54 53 52 51 50 49 49 49 48 46 45 40 41 42 45 46 49 57 59 58 58 57 57 57 56 56 56 56 55 53 51 49 44 39 43 49 55 55 54 54 54 53 51 47 42 41 44 48 51 52 53
54 54 54 55 55 54 55 55 55 55 54 53 51 50 49 50 50 49 49 48 47 46 46 42 41 42 43 48 52 58 57 57 56 56 54 53 52 52 53 53 52 51 49 48 41 38 40 46 54 54 55 54 53 53 52 51 45 42 41 41 41 42 42
53 53 54 53 54 54 54 54 54 54 53 51 49 49 48 47 47 47 47 47 47 46 45 43 41 42 43 45 51 56 56 56 55 53 51 50 50 49 51 52 51 48 47 45 38 38 40 49 53 53 53 52 53 52 50 49 51 51 45 44 43 41 41
52 52 52 53 54 54 54 54 54 54 52 51 49 48 47 46 46 46 46 46 49 47 46 45 42 41 42 44 49 52 54 54 53 51 50 48 48 48 48 47 45 45 45 40 36 38 39 47 51 51 51 51 49 49 47 47 48 49 49 50 49 49 48
51 51 52 53 53 53 53 54 53 52 51 50 49 48 47 46 46 45 46 47 46 46 45 45 43 41 42 43 45 51 51 52 51 51 51 50 49 47 46 46 44 38 38 37 36 36 37 40 50 50 49 48 47 48 49 48 49 48 48 49 50 49 49
52 52 51 51 52 52 52 52 52 51 49 49 48 46 46 47 47 46 46 46 46 46 46 45 43 40 41 42 43 46 50 50 51 50 50 49 49 47 47 45 44 40 38 38 37 36 37 38 42 49 48 49 49 46 42 46 48 46 48 48 49 51 51
51 51 51 51 50 50 51 52 51 50 49 47 47 46 45 45 45 45 46 46 45 45 45 45 44 41 40 41 40 42 47 47 48 49 48 48 48 47 47 45 44 41 37 38 37 36 37 38 39 45 41 37 36 37 41 43 45 46 47 47 47 49 50
49 49 50 50 49 49 50 51 51 50 49 48 47 46 45 45 44 43 44 45 45 45 44 44 41 42 40 40 40 39 40 43 43 49 48 46 45 43 43 42 43 41 37 37 36 36 37 39 41 38 35 36 37 38 41 42 43 45 45 45 46 46 46
48 46 47 49 49 49 49 48 48 49 49 48 47 47 46 46 44 43 42 41 42 43 44 44 41 40 40 39 39 39 39 39 40 43 43 41 40 40 39 39 39 37 37 38 37 36 35 36 35 33 33 34 39 40 42 44 43 44 42 42 43 41 40